Location: Derby
(52.9213°N, 1.4761°W)
Time: 19:27:14
(UTC+01:00)

Tiros 1 - Pass Details

Date: 28 May 2025
Orbit: 620 x 651 km, 48.4° (Epoch: 13 June)

Event Time Altitude Azimuth Distance (km) Brightness Sun altitude
Rises 14:46:12 0° 201° (SSW) 2,882 11.0 53.0°
Reaches altitude 10° 14:49:20 10° 179° (S) 1,979 10.2 52.6°
Maximum altitude 14:51:57 15° 143° (SE) 1,663 9.5 52.4°
Drops below altitude 10° 14:54:35 10° 108° (ESE) 1,987 9.6 52.1°
Sets 14:57:44 0° 86° (E) 2,900 10.2 51.8°
